FW5836 Weather Reports


time (UTC)temp
F
wind
direction
speed
knots
gust
knots
rain 1hr
in
rain 24hr
in
rain mn
in
humidity
%
barometer
mb
20260507065823 54 0.0 0.0 0.00 0.29 0.16 99 1010.9
20260507064818 54 180 0.0 1.7 0.00 0.29 0.16 99 1011.0
20260507063828 55 165 1.7 4.3 0.01 0.29 0.16 99 1011.0
20260507062829 55 0.0 0.0 0.02 0.29 0.16 99 1010.8
20260507061831 56 0.0 0.0 0.03 0.29 0.16 99 1010.9
20260507060832 56 0.0 0.0 0.06 0.29 0.16 99 1010.9
20260507055816 56 0.0 0.0 0.16 0.29 0.16 99 1010.9
20260507054849 57 0.0 0.0 0.16 0.29 0.16 99 1010.9
20260507053831 57 0.0 0.0 0.15 0.28 0.15 99 1010.9
20260507052832 57 23 0.9 1.7 0.14 0.27 0.14 99 1010.8
20260507051835 57 0.0 0.0 0.13 0.26 0.13 99 1011.1
20260507050816 59 0.0 0.0 0.10 0.23 0.10 99 1010.5
20260507045837 60 113 0.9 2.6 0.00 0.13 0.00 99 1010.5
20260507044819 60 0.0 0.0 0.00 0.13 0.00 98 1010.3
20260507043820 60 0.9 2.6 0.00 0.13 0.00 97 1010.3
20260507042821 61 0 0.9 1.7 0.00 0.13 0.00 95 1010.2
20260507041823 61 119 0.9 1.7 0.00 0.13 0.00 96 1010.1
20260507040825 61 270 0.9 1.7 0.00 0.13 0.00 96 1010.0
20260507035826 62 135 0.9 2.6 0.00 0.13 0.13 95 1010.2
20260507034828 62 248 0.0 1.7 0.00 0.13 0.13 94 1010.1
20260507033829 62 45 0.9 3.5 0.00 0.13 0.13 93 1010.1
20260507032830 63 353 0.9 2.6 0.00 0.13 0.13 93 1009.9
20260507031823 63 0.0 1.7 0.00 0.13 0.13 92 1009.6
20260507030838 64 158 0.9 2.6 0.00 0.13 0.13 92 1009.7
20260507025851 64 350 1.7 3.5 0.00 0.13 0.13 93 1009.5
20260507024854 65 0 0.9 2.6 0.00 0.13 0.13 99 1009.2
20260507023836 65 0.0 0.0 0.00 0.13 0.13 99 1009.2
20260507022857 65 0.0 0.0 0.00 0.13 0.13 99 1009.1
20260507021818 65 0.0 1.7 0.00 0.13 0.13 99 1009.3
20260507020819 65 0.0 0.0 0.00 0.13 0.13 99 1009.3
20260507015821 65 0.0 0.0 0.00 0.13 0.13 99 1009.5
20260507014821 65 0.0 0.0 0.00 0.13 0.13 99 1009.5
20260507013825 65 0.0 0.0 0.00 0.13 0.13 99 1009.5
20260507012824 65 0.0 0.0 0.00 0.13 0.13 99 1009.3
20260507011846 65 0.0 0.0 0.00 0.13 0.13 99 1009.2
20260507010827 65 0.0 0.0 0.00 0.13 0.13 99 1009.2
20260507005828 65 0.0 0.0 0.00 0.13 0.13 99 1009.0
20260507004843 65 0.0 0.0 0.00 0.13 0.13 99 1008.8
20260507003829 66 0.0 0.0 0.00 0.13 0.13 99 1008.8
20260507002830 66 0.0 1.7 0.00 0.13 0.13 99 1008.8
20260507001831 66 0.0 0.0 0.00 0.13 0.13 99 1009.0
20260507000815 66 0.0 0.0 0.00 0.13 0.13 99 1008.6
20260506235817 66 0.0 0.0 0.00 0.13 0.13 99 1008.4
20260506234817 67 0.0 0.0 0.00 0.13 0.13 99 1008.4
20260506233819 67 0.0 0.0 0.00 0.13 0.13 99 1008.4
20260506232820 67 0.0 0.0 0.00 0.13 0.13 98 1008.3
20260506231841 68 0.0 0.0 0.00 0.13 0.13 98 1008.4
20260506230822 68 0.0 0.0 0.00 0.13 0.13 97 1008.3
20260506225823 68 0.0 0.0 0.00 0.13 0.13 97 1008.3
20260506224818 68 0.0 0.0 0.00 0.13 0.13 97 1008.3
20260506223823 69 0.0 0.0 0.00 0.13 0.13 96 1008.3
20260506222824 69 0.0 0.9 0.00 0.13 0.13 95 1008.3
20260506221825 69 0.0 0.0 0.00 0.13 0.13 95 1008.2
20260506220826 68 158 0.9 2.6 0.00 0.13 0.13 96 1008.3
20260506215827 68 135 0.9 2.6 0.00 0.13 0.13 96 1008.1
20260506214828 68 158 0.9 2.6 0.00 0.13 0.13 97 1008.1
20260506213829 68 203 0.9 2.6 0.00 0.13 0.13 97 1008.1
20260506212850 68 307 1.7 4.3 0.00 0.13 0.13 96 1008.0
20260506211825 68 161 0.9 2.6 0.00 0.13 0.13 97 1008.0
20260506210820 68 180 0.0 1.7 0.00 0.13 0.13 97 1007.9
20260506205815 68 225 0.0 0.9 0.00 0.13 0.13 96 1008.1
20260506204817 68 180 0.9 2.6 0.00 0.13 0.13 96 1007.9
20260506203815 68 140 1.7 4.3 0.00 0.13 0.13 95 1007.9
20260506202816 68 170 1.7 2.6 0.00 0.13 0.13 95 1007.8
20260506201818 69 131 1.7 2.6 0.00 0.13 0.13 94 1007.8
20260506200819 70 164 0.9 1.7 0.00 0.13 0.13 92 1007.9
20260506195820 70 180 2.6 3.5 0.00 0.13 0.13 90 1007.9
20260506194842 70 153 2.6 5.2 0.00 0.13 0.13 91 1007.9
20260506193823 70 140 1.7 5.2 0.00 0.13 0.13 91 1007.9
20260506192824 69 203 2.6 4.3 0.00 0.13 0.13 91 1008.1
20260506191905 69 143 2.6 3.5 0.00 0.13 0.13 95 1008.4
20260506190826 68 164 1.7 3.5 0.00 0.13 0.13 98 1008.6
20260506185826 67 139 1.7 1.7 0.00 0.13 0.13 99 1008.6
20260506184841 66 158 2.6 2.6 0.00 0.13 0.13 99 1008.6
20260506183830 66 149 2.6 3.5 0.00 0.13 0.13 99 1008.6
20260506182832 66 131 2.6 2.6 0.00 0.13 0.13 99 1008.7
20260506181815 65 151 1.7 3.5 0.00 0.13 0.13 99 1008.9
20260506180816 65 135 3.5 4.3 0.00 0.13 0.13 99 1008.9
20260506175817 64 152 0.9 3.5 0.00 0.13 0.13 99 1008.9
20260506174819 64 150 1.7 2.6 0.00 0.13 0.13 99 1009.1
20260506173820 63 132 2.6 4.3 0.00 0.13 0.13 99 1009.1
20260506172822 63 184 2.6 7.0 0.00 0.13 0.13 99 1009.0
20260506171822 63 162 2.6 5.2 0.00 0.13 0.13 99 1009.0
20260506170823 62 143 1.7 2.6 0.00 0.13 0.13 99 1009.3
20260506165824 62 171 1.7 5.2 0.00 0.13 0.13 99 1009.4
20260506164819 62 123 3.5 5.2 0.01 0.13 0.13 99 1009.4
20260506163826 62 189 0.9 4.3 0.01 0.13 0.13 99 1009.4
20260506162827 62 153 4.3 6.1 0.01 0.13 0.13 99 1009.5
20260506161828 62 130 2.6 3.5 0.03 0.13 0.13 99 1009.5
20260506160830 62 154 1.7 4.3 0.05 0.13 0.13 99 1009.8
20260506155831 62 118 2.6 7.0 0.06 0.13 0.13 99 1009.6
20260506154852 61 197 3.5 4.3 0.06 0.12 0.12 99 1010.1
20260506153835 61 0.9 4.3 0.06 0.12 0.12 99 1010.1
20260506152816 61 180 1.7 4.3 0.07 0.12 0.12 99 1010.2
20260506151817 61 149 4.3 6.1 0.06 0.10 0.10 99 1010.3
20260506150818 61 149 2.6 6.1 0.06 0.08 0.08 99 1010.4
20260506145820 62 168 1.7 2.6 0.06 0.07 0.07 99 1010.1
20260506144836 62 154 2.6 6.1 0.06 0.06 0.06 99 1010.2
20260506143819 62 113 0.9 3.5 0.06 0.06 0.06 99 1010.2
20260506142820 62 180 0.9 1.7 0.05 0.05 0.05 99 1010.1
20260506141821 62 173 2.6 4.3 0.04 0.04 0.04 99 1010.5
20260506140823 62 225 0.0 1.7 0.02 0.02 0.02 99 1010.7
20260506135824 63 236 1.7 2.6 0.01 0.01 0.01 99 1010.4
20260506134825 63 189 1.7 3.5 0.00 0.00 0.00 98 1010.5
20260506133821 64 182 1.7 6.1 0.00 0.00 0.00 97 1010.5
20260506132822 64 180 0.9 2.6 0.00 0.00 0.00 94 1010.2
20260506131823 65 150 1.7 3.5 0.00 0.00 0.00 94 1010.1
20260506130823 65 191 3.5 5.2 0.00 0.00 0.00 94 1010.2
20260506125824 64 195 2.6 4.3 0.00 0.00 0.00 95 1010.3
20260506124819 64 124 2.6 6.1 0.00 0.00 0.00 95 1010.5
20260506123825 64 198 1.7 4.3 0.00 0.00 0.00 94 1010.6
20260506122826 64 135 1.7 4.3 0.00 0.00 0.00 92 1010.6
20260506121828 65 162 2.6 6.1 0.00 0.00 0.00 92 1010.5
20260506120829 65 154 0.9 3.5 0.00 0.00 0.00 91 1010.5
20260506115830 65 141 2.6 4.3 0.00 0.00 0.00 91 1010.2
20260506114832 65 180 2.6 4.3 0.00 0.00 0.00 91 1010.2
20260506113833 65 162 3.5 4.3 0.00 0.00 0.00 92 1010.2
20260506112816 65 167 1.7 4.3 0.00 0.00 0.00 91 1010.1
20260506111817 65 165 1.7 5.2 0.00 0.00 0.00 92 1009.9
20260506110819 65 148 2.6 4.3 0.00 0.00 0.00 92 1010.0
20260506105820 65 181 5.2 7.0 0.00 0.00 0.00 92 1009.8
20260506104815 64 180 0.9 1.7 0.00 0.00 0.00 93 1009.8
20260506103820 64 176 3.5 5.2 0.00 0.00 0.00 93 1009.8
20260506102821 64 157 2.6 3.5 0.00 0.00 0.00 92 1009.6
20260506101822 64 124 0.9 4.3 0.00 0.00 0.00 92 1009.8
20260506100843 64 131 5.2 7.8 0.00 0.00 0.00 92 1009.7
20260506095825 64 141 1.7 3.5 0.00 0.00 0.00 92 1009.7
20260506094826 64 189 3.5 7.0 0.00 0.00 0.00 91 1009.7
20260506093847 65 162 2.6 5.2 0.00 0.00 0.00 91 1009.7
20260506092849 65 152 2.6 5.2 0.00 0.00 0.00 91 1009.7
20260506091844 65 143 1.7 3.5 0.00 0.00 0.00 92 1009.8
20260506090819 65 137 3.5 6.1 0.00 0.00 0.00 92 1009.9
20260506085815 65 158 0.9 3.5 0.00 0.00 0.00 91 1010.0
20260506084837 65 163 1.7 3.5 0.00 0.00 0.00 91 1009.9
20260506083830 65 156 3.5 5.2 0.00 0.00 0.00 91 1009.9
20260506082832 66 123 2.6 3.5 0.00 0.00 0.00 90 1009.8
20260506081835 66 113 0.9 2.6 0.00 0.00 0.00 88 1009.7
20260506080817 66 158 0.9 1.7 0.00 0.00 0.00 87 1009.8
20260506072921 68 155 3.5 4.3 0.00 0.00 0.00 84 1010.0
20260506071822 68 142 2.6 4.3 0.00 0.00 0.00 84 1010.0
20260506070818 68 186 0.9 1.7 0.00 0.00 0.00 84 1010.1